Torna al catalogo

SIMSAT 1

AttivoScienzaPO
NORAD 26365·PAYLOAD·🇷🇺 Russia

Lanciato May 16, 2000 da Plesetsk Cosmodrome

Loading…

Prossimi Passaggi (prossime 24 ore)

TLE

AggiornatoSource: Space-Track

Epoca: Sep 14, 2026, 12:32 UTC

1 26365U 00026A   26257.52227108  .00001605  00000-0  56520-4 0  9993
2 26365  86.3381  87.7693 0008759  21.2285 338.9324 15.28414913456030

Traccia SIMSAT 1 in tempo reale con AllMySat

Download on the App Store